Regional Weather Roundup
Issued by NWS Sterling, VA

Home | Current Version | Previous Version | Graphics & Text | Print | Product List | Glossary On
Versions: 1 2 3 4 5 6 7 8 9 10 11 12 13 14 15 16 17 18 19 20 21 22 23 24 25 26 27
000
ASUS41 KLWX 201411
RWRLWX

REGIONAL WEATHER ROUNDUP
NATIONAL WEATHER SERVICE BALTIMORE MD/WASHINGTON DC
1000 AM EDT WED SEP 20 2017

Note: "FAIR" indicates few or no clouds below 12,000 feet
with no significant weather and/or obstructions to visibility.
 TC=TEMPERATURE CELSIUS

 * =Non NWS site. Station does not report precipitation (e.g. rain,
    snow, etc.), thunder, or fog.

DCZ001-MDZ009-015-VAZ040>042-051-053>054-201500-
WASHINGTON METRO

CITY           SKY/WX    TMP DP  RH WIND       PRES   REMARKS
WASHINGTON NAT CLOUDY    75  64  68 NW9       29.99R
DULLES         MOSUNNY   73  65  75 NW8       30.00R
ANDREWS AFB    MOSUNNY   74  62  67 NW10      29.97R
FT BELVOIR     CLOUDY    75  63  66 NW8       29.98S
QUANTICO       CLOUDY    76  66  71 N10       29.99S
COLLEGE PARK*  CLOUDY    73  63  71 NW3       29.98R
LEESBURG*      SUNNY     75  68  78 N7        30.02R
MANASSAS*      SUNNY     75  65  70 NE6       30.00S
GAITHERSBURG*  MOSUNNY   71  64  78 NW7       30.01R

$$

MDZ006>007-011-014-201500-
BALTIMORE METRO

CITY           SKY/WX    TMP DP  RH WIND       PRES   REMARKS
BWI AIRPORT    PTSUNNY   74  66  76 NW9       29.96R
MD SCIENCE CTR   N/A     77  63  61 MISG      29.96R
MARTIN STATE   PTSUNNY   75  68  78 NW8       29.97R
ANNAPOLIS      MOSUNNY   78  68  71 NW8       29.95S
FORT MEADE*    CLOUDY    72  63  73 NW3       30.00R

$$

MDZ012-015-019>023-201500-
MARYLAND EASTERN SHORE

CITY           SKY/WX    TMP DP  RH WIND       PRES   REMARKS
OCEAN CITY     SUNNY     75  68  78 N15G22    29.90R
SALISBURY      SUNNY     77  67  71 NW15G21   29.91S
CAMBRIDGE*     SUNNY     77  66  69 NW15      29.93S
EASTON*        PTSUNNY   77  64  65 N9        29.97R

$$

MDZ017>025-201500-
SOUTHERN MARYLAND

CITY           SKY/WX    TMP DP  RH WIND       PRES   REMARKS
PATUXENT RIVER MOSUNNY   77  67  71 NW14      29.95R
ST INIGOES     SUNNY     77  66  68 NW9       29.94S
LEONARDTOWN*   CLOUDY    73  64  73 NW6       29.97S

$$

MDZ003>005-201500-
NORTH CENTRAL MARYLAND

CITY           SKY/WX    TMP DP  RH WIND       PRES   REMARKS
FREDERICK*     SUNNY     75  66  73 CALM      30.03R
HAGERSTOWN APT SUNNY     71  64  78 CALM      30.02S
WESTMINSTER*   CLOUDY    73  64  73 NW6       30.01R

$$

MDZ501>502-201500-
WESTERN MARYLAND

CITY           SKY/WX    TMP DP  RH WIND       PRES   REMARKS
OAKLAND*         N/A    N/A N/A N/A MISG        N/A
CUMBERLAND*    SUNNY     66  63  88 CALM      30.09F

$$

VAZ025>031-201500-
SHENANDOAH VALLEY

CITY           SKY/WX    TMP DP  RH WIND       PRES   REMARKS
WINCHESTER*    SUNNY     70  63  78 CALM      30.03R
FRONT ROYAL*   SUNNY     70  64  83 SW7       30.02S
LURAY*         SUNNY     66  64  94 CALM      30.05R
NEW MARKET*    MOSUNNY   69  62  78 SW3       30.04S
STAUNTON*      SUNNY     67  63  88 CALM      30.08S
WAYNESBORO*    SUNNY     69  65  86 CALM      30.07S

$$

WVZ021-048>050-054>055-201500-
EASTERN WEST VIRGINIA PANHANDLE

CITY           SKY/WX    TMP DP  RH WIND       PRES   REMARKS
MARTINSBURG    SUNNY     70  62  76 CALM      30.02R
PETERSBURG*    SUNNY     67  63  87 CALM      30.06S

$$

VAZ036>039-050-201500-
CENTRAL FOOTHILLS

CITY           SKY/WX    TMP DP  RH WIND       PRES   REMARKS
CHARLOTTESVILL SUNNY     75  66  73 CALM      30.01S
CULPEPER*      SUNNY     76  65  70 N5        30.01S
ORANGE*        SUNNY     73  64  73 CALM      30.01R
GORDONSVILLE*  SUNNY     77  67  71 CALM      30.00S
WARRENTON*     SUNNY     78  62  56 N5        29.99F

$$

VAZ055>057-201500-
NORTH AND CENTRAL PIEDMONT

CITY           SKY/WX    TMP DP  RH WIND       PRES   REMARKS
FREDERICKSBRG* SUNNY     76  65  69 NW6       29.98S
STAFFORD*      SUNNY     76  66  71 NW6       30.03R

$$

NCZ024-NYZ072-PAZ021-071-VAZ022-071-201500-
OTHER REGIONAL OBSERVATIONS

CITY           SKY/WX    TMP DP  RH WIND       PRES   REMARKS
NEW YORK CITY  PTSUNNY   74  64  71 VRB5G17   29.91R
PHILADELPHIA   MOSUNNY   75  63  66 N15       29.91S
PITTSBURGH     PTSUNNY   71  64  78 CALM      30.06R
ROANOKE        MOSUNNY   74  64  71 CALM      30.09R
RICHMOND       MOSUNNY   79  64  60 NW7       29.99R
RALEIGH        MOSUNNY   77  68  73 W3        30.04R

$$

ANZ530>537-201500-
MARINE OBSERVATIONS

STATION/POSITION TIME  TEMP    WIND        PRES
                       AIR SEA DIR/SP/G
                 (UTC) (F)     (DEG/KT/KT) (MB)
THOMAS PT LIGHT  1400   74 75  330/ 10/ 11   N/A
BALT KEY BRIDGE  1348   75     300/  9/ 10 1014.3R
COVE POINT       1348   74     340/ 16/ 19 1014.7R
LEWISETTA        1348   76 75  340/ 11/ 14 1014.4R
SOLOMONS ISLAND  1348   74 76  320/  9/ 15 1013.9R
PINEY POINT      1336          340/ 14/ 15   N/A

$$





USA.gov is the U.S. government's official web portal to all federal, state and local government web resources and services.